When you browse on this site, cookies collect data to enhance your experience and personalize the content and advertising you see.
Visit our Privacy Policy to learn more. By continuing to use the site, you agree to this use of cookies and data.
  • In Hungary
  • List of Countries
  • For 7 days
  • Water Temperature
  • Satellite Maps
  • Weather Map
  • News
  • Weather Widgets
  • user-avatar
    Login

    Hourly Weather Jambol

    Today, 18 November, Sunday

    Time Temperature Precipitation Wind Pressure Humidity
    00:00 +2°C° 0.1 mm 3 mps 759 mmHg 78%
    01:00 +2°C° 0.1 mm 3 mps 759 mmHg 78%
    02:00 +2°C° 0.1 mm 3 mps 759 mmHg 79%
    03:00 +3°C° 0 mm 3 mps 759 mmHg 79%
    04:00 +3°C° 0 mm 3 mps 758 mmHg 79%
    05:00 +3°C° 0 mm 3 mps 758 mmHg 79%
    06:00 +3°C° 0 mm 3 mps 758 mmHg 79%
    07:00 +3°C° 0 mm 3 mps 758 mmHg 79%
    08:00 +3°C° 0 mm 3 mps 757 mmHg 79%
    09:00 +3°C° 0 mm 4 mps 757 mmHg 78%
    10:00 +4°C° 0 mm 4 mps 757 mmHg 76%
    11:00 +5°C° 0 mm 4 mps 757 mmHg 75%
    12:00 +6°C° 0 mm 4 mps 756 mmHg 74%
    13:00 +7°C° 0 mm 5 mps 755 mmHg 73%
    14:00 +7°C° 0 mm 5 mps 754 mmHg 72%
    15:00 +7°C° 0.5 mm 5 mps 754 mmHg 76%
    16:00 +7°C° 0.5 mm 5 mps 753 mmHg 79%
    17:00 +6°C° 0.5 mm 5 mps 752 mmHg 83%
    18:00 +6°C° 1.1 mm 5 mps 752 mmHg 84%
    19:00 +6°C° 1.1 mm 5 mps 751 mmHg 86%
    20:00 +5°C° 1.1 mm 6 mps 751 mmHg 87%
    21:00 +7°C° 2 mm 6 mps 750 mmHg 88%
    22:00 +7°C° 2 mm 5 mps 749 mmHg 89%
    23:00 +7°C° 2 mm 5 mps 749 mmHg 90%

    Tomorrow, 19 November, Monday

    Time Temperature Precipitation Wind Pressure Humidity
    00:00 +7°C° 2.3 mm 5 mps 748 mmHg 90%
    01:00 +7°C° 2.3 mm 6 mps 747 mmHg 91%
    02:00 +8°C° 2.3 mm 6 mps 747 mmHg 91%
    03:00 +8°C° 3.4 mm 5 mps 746 mmHg 91%
    04:00 +8°C° 3.4 mm 5 mps 746 mmHg 91%
    05:00 +8°C° 3.4 mm 5 mps 745 mmHg 91%
    06:00 +7°C° 0.2 mm 4 mps 745 mmHg 90%
    07:00 +7°C° 0.2 mm 4 mps 745 mmHg 88%
    08:00 +7°C° 0.2 mm 4 mps 745 mmHg 87%
    09:00 +8°C° 0 mm 3 mps 746 mmHg 85%
    10:00 +8°C° 0 mm 3 mps 747 mmHg 82%
    11:00 +9°C° 0 mm 3 mps 747 mmHg 80%
    12:00 +9°C° 0 mm 3 mps 747 mmHg 77%
    13:00 +9°C° 0 mm 3 mps 748 mmHg 74%
    14:00 +10°C° 0 mm 3 mps 748 mmHg 71%
    15:00 +9°C° 0 mm 3 mps 749 mmHg 73%
    16:00 +8°C° 0 mm 3 mps 750 mmHg 76%
    17:00 +7°C° 0 mm 3 mps 750 mmHg 78%
    18:00 +7°C° 0 mm 3 mps 751 mmHg 79%
    19:00 +6°C° 0 mm 2 mps 752 mmHg 81%
    20:00 +5°C° 0 mm 2 mps 752 mmHg 82%
    21:00 +5°C° 0 mm 2 mps 753 mmHg 83%
    22:00 +5°C° 0 mm 2 mps 753 mmHg 84%
    23:00 +5°C° 0 mm 1 mps 754 mmHg 84%

    Day after tomorrow, 20 November, Tuesday

    Time Temperature Precipitation Wind Pressure Humidity
    00:00 +5°C° 0 mm 1 mps 754 mmHg 85%
    01:00 +5°C° 0 mm 1 mps 754 mmHg 85%
    02:00 +5°C° 0 mm 1 mps 754 mmHg 85%
    03:00 +4°C° 0 mm 1 mps 754 mmHg 86%
    04:00 +3°C° 0 mm 2 mps 755 mmHg 86%
    05:00 +3°C° 0 mm 2 mps 755 mmHg 87%
    06:00 +3°C° 0 mm 2 mps 755 mmHg 86%
    07:00 +3°C° 0 mm 2 mps 755 mmHg 86%
    08:00 +3°C° 0 mm 2 mps 755 mmHg 85%
    09:00 +4°C° 0 mm 2 mps 755 mmHg 82%
    10:00 +5°C° 0 mm 3 mps 755 mmHg 79%
    11:00 +7°C° 0 mm 3 mps 755 mmHg 76%
    12:00 +7°C° 0 mm 3 mps 755 mmHg 78%
    13:00 +8°C° 0 mm 3 mps 754 mmHg 79%
    14:00 +8°C° 0 mm 3 mps 754 mmHg 81%
    15:00 +8°C° 0.1 mm 3 mps 753 mmHg 84%
    16:00 +8°C° 0.1 mm 2 mps 753 mmHg 87%
    17:00 +8°C° 0.1 mm 2 mps 753 mmHg 90%
    18:00 +8°C° 0.2 mm 2 mps 752 mmHg 91%
    19:00 +9°C° 0.2 mm 2 mps 752 mmHg 92%
    20:00 +9°C° 0.2 mm 2 mps 752 mmHg 93%
    21:00 +9°C° 0.3 mm 2 mps 752 mmHg 94%
    22:00 +9°C° 0.3 mm 2 mps 752 mmHg 95%
    23:00 +10°C° 0.3 mm 2 mps 751 mmHg 96%

    21 November, Wednesday

    Time Temperature Precipitation Wind Pressure Humidity
    00:00 +10°C° 0.2 mm 2 mps 751 mmHg 96%
    01:00 +10°C° 0.2 mm 2 mps 750 mmHg 96%
    02:00 +10°C° 0.2 mm 2 mps 750 mmHg 96%
    03:00 +12°C° 0.5 mm 2 mps 749 mmHg 97%
    04:00 +12°C° 0.5 mm 2 mps 748 mmHg 97%
    05:00 +12°C° 0.5 mm 2 mps 748 mmHg 97%
    06:00 +11°C° 0.8 mm 3 mps 747 mmHg 97%
    07:00 +12°C° 0.8 mm 3 mps 747 mmHg 96%
    08:00 +12°C° 0.8 mm 3 mps 746 mmHg 96%
    09:00 +12°C° 1.3 mm 4 mps 746 mmHg 95%
    10:00 +13°C° 1.3 mm 4 mps 746 mmHg 94%
    11:00 +13°C° 1.3 mm 5 mps 745 mmHg 94%
    12:00 +14°C° 0.4 mm 4 mps 745 mmHg 89%
    13:00 +15°C° 0.4 mm 4 mps 745 mmHg 84%
    14:00 +17°C° 0.4 mm 3 mps 744 mmHg 80%
    15:00 +16°C° 0.4 mm 3 mps 745 mmHg 82%
    16:00 +14°C° 0.4 mm 3 mps 745 mmHg 83%
    17:00 +12°C° 0.4 mm 3 mps 745 mmHg 85%
    18:00 +12°C° 0.1 mm 4 mps 745 mmHg 84%
    19:00 +11°C° 0.1 mm 4 mps 746 mmHg 83%
    20:00 +10°C° 0.1 mm 4 mps 746 mmHg 81%
    21:00 +10°C° 0 mm 4 mps 747 mmHg 81%
    22:00 +10°C° 0 mm 4 mps 747 mmHg 80%
    23:00 +8°C° 0 mm 4 mps 748 mmHg 80%

    22 November, Thursday

    Time Temperature Precipitation Wind Pressure Humidity
    00:00 +8°C° 0 mm 4 mps 748 mmHg 80%
    01:00 +8°C° 0 mm 4 mps 749 mmHg 81%
    02:00 +8°C° 0 mm 4 mps 749 mmHg 81%
    03:00 +8°C° 0 mm 4 mps 749 mmHg 81%
    04:00 +8°C° 0 mm 5 mps 750 mmHg 82%
    05:00 +7°C° 0 mm 5 mps 750 mmHg 82%
    06:00 +7°C° 0 mm 4 mps 751 mmHg 82%
    07:00 +7°C° 0 mm 4 mps 752 mmHg 81%
    08:00 +6°C° 0 mm 4 mps 752 mmHg 81%
    09:00 +6°C° 0.1 mm 4 mps 753 mmHg 80%
    10:00 +6°C° 0.1 mm 4 mps 753 mmHg 80%
    11:00 +7°C° 0.1 mm 4 mps 754 mmHg 79%
    12:00 +8°C° 0 mm 3 mps 754 mmHg 78%
    13:00 +8°C° 0 mm 3 mps 754 mmHg 77%
    14:00 +8°C° 0 mm 3 mps 754 mmHg 77%
    15:00 +8°C° 0 mm 3 mps 755 mmHg 78%
    16:00 +8°C° 0 mm 3 mps 755 mmHg 80%
    17:00 +7°C° 0 mm 3 mps 756 mmHg 81%
    18:00 +7°C° 0 mm 2 mps 756 mmHg 83%
    19:00 +6°C° 0 mm 2 mps 756 mmHg 84%
    20:00 +6°C° 0 mm 2 mps 757 mmHg 86%
    21:00 +6°C° 0 mm 2 mps 757 mmHg 86%
    22:00 +5°C° 0 mm 2 mps 757 mmHg 87%
    23:00 +5°C° 0 mm 2 mps 757 mmHg 87%

    23 November, Friday

    Time Temperature Precipitation Wind Pressure Humidity
    00:00 +5°C° 0 mm 2 mps 758 mmHg 87%
    01:00 +5°C° 0 mm 2 mps 758 mmHg 87%
    02:00 +4°C° 0 mm 2 mps 758 mmHg 87%
    03:00 +4°C° 0 mm 2 mps 758 mmHg 87%
    04:00 +5°C° 0 mm 1 mps 758 mmHg 87%
    05:00 +5°C° 0 mm 1 mps 758 mmHg 87%
    06:00 +5°C° 0 mm 1 mps 758 mmHg 87%
    07:00 +5°C° 0 mm 1 mps 759 mmHg 86%
    08:00 +5°C° 0 mm 1 mps 759 mmHg 86%
    09:00 +6°C° 0 mm 2 mps 759 mmHg 81%
    10:00 +7°C° 0 mm 2 mps 759 mmHg 75%
    11:00 +8°C° 0 mm 2 mps 760 mmHg 70%
    12:00 +9°C° 0 mm 2 mps 760 mmHg 68%
    13:00 +9°C° 0 mm 2 mps 759 mmHg 66%
    14:00 +10°C° 0 mm 2 mps 759 mmHg 64%
    15:00 +9°C° 0 mm 2 mps 759 mmHg 68%
    16:00 +8°C° 0 mm 2 mps 759 mmHg 72%
    17:00 +7°C° 0 mm 2 mps 759 mmHg 76%
    18:00 +7°C° 0 mm 2 mps 760 mmHg 78%
    19:00 +6°C° 0 mm 2 mps 760 mmHg 80%
    20:00 +5°C° 0 mm 2 mps 760 mmHg 82%
    21:00 +6°C° 0 mm 1 mps 760 mmHg 82%
    22:00 +6°C° 0 mm 1 mps 760 mmHg 83%
    23:00 +6°C° 0 mm 1 mps 760 mmHg 83%
    Show more